Time,TemperatureF,DewpointF,PressureIn,WindDirection,WindDirectionDegrees,WindSpeedMPH,WindSpeedGustMPH,Humidity,HourlyPrecipIn,Conditions,Clouds,dailyrainin,SoftwareType,DateUTC
2013-03-18 00:02:00,40.0,39.0,29.73,ESE,120,0.0,2.0,97,0.00,,,0.21,,2013-03-18 05:02:00,
2013-03-18 00:12:00,40.0,39.0,29.73,ESE,120,0.0,2.0,97,0.00,,,0.21,,2013-03-18 05:12:00,
2013-03-18 00:22:00,40.0,39.0,29.73,ESE,116,0.0,4.0,97,0.00,,,0.21,,2013-03-18 05:22:00,
2013-03-18 00:32:00,40.0,39.0,29.74,East,96,0.0,1.0,97,0.00,,,0.21,,2013-03-18 05:32:00,
2013-03-18 00:43:00,40.0,39.0,29.74,East,96,0.0,1.0,97,0.00,,,0.21,,2013-03-18 05:43:00,
2013-03-18 00:52:00,41.0,40.0,29.73,East,96,0.0,0.0,98,0.00,,,0.21,,2013-03-18 05:52:00,
2013-03-18 01:02:00,40.0,39.0,29.73,ESE,111,0.0,1.0,97,0.00,,,0.21,,2013-03-18 06:02:00,
2013-03-18 01:12:00,40.0,39.0,29.73,ESE,111,0.0,1.0,97,0.00,,,0.21,,2013-03-18 06:12:00,
2013-03-18 01:22:00,41.0,40.0,29.74,ESE,112,0.0,0.0,97,0.00,,,0.21,,2013-03-18 06:22:00,
2013-03-18 01:32:00,41.0,40.0,29.73,ESE,111,0.0,0.0,98,0.00,,,0.21,,2013-03-18 06:32:00,
2013-03-18 01:42:00,41.0,40.0,29.73,ESE,111,0.0,0.0,98,0.00,,,0.21,,2013-03-18 06:42:00,
2013-03-18 01:52:00,41.0,40.0,29.73,ESE,111,0.0,1.0,98,0.00,,,0.21,,2013-03-18 06:52:00,
2013-03-18 02:02:00,41.0,40.0,29.72,ESE,111,0.0,1.0,98,0.00,,,0.21,,2013-03-18 07:02:00,
2013-03-18 02:12:00,41.0,40.0,29.72,ESE,111,0.0,1.0,98,0.00,,,0.21,,2013-03-18 07:12:00,
2013-03-18 02:22:00,41.0,40.0,29.72,East,101,0.0,2.0,98,0.00,,,0.21,,2013-03-18 07:22:00,
2013-03-18 02:32:00,41.0,40.0,29.72,ESE,115,0.0,1.0,98,0.00,,,0.21,,2013-03-18 07:32:00,
2013-03-18 02:42:00,41.0,40.0,29.72,ESE,115,0.0,1.0,98,0.00,,,0.21,,2013-03-18 07:42:00,
2013-03-18 02:52:00,41.0,40.0,29.72,ESE,116,1.0,2.0,98,0.00,,,0.21,,2013-03-18 07:52:00,
2013-03-18 03:02:00,41.0,40.0,29.72,SW,217,0.0,1.0,98,0.00,,,0.21,,2013-03-18 08:02:00,
2013-03-18 03:12:00,41.0,40.0,29.72,SW,217,0.0,1.0,98,0.00,,,0.21,,2013-03-18 08:12:00,
2013-03-18 03:22:00,41.0,40.0,29.72,SW,231,1.0,2.0,98,0.00,,,0.21,,2013-03-18 08:22:00,
2013-03-18 03:32:00,41.0,40.0,29.71,SSW,201,0.0,1.0,98,0.00,,,0.21,,2013-03-18 08:32:00,
2013-03-18 03:43:00,41.0,40.0,29.71,SSW,201,0.0,1.0,98,0.00,,,0.21,,2013-03-18 08:43:00,
2013-03-18 03:52:00,41.0,40.0,29.70,SW,225,0.0,2.0,98,0.00,,,0.21,,2013-03-18 08:52:00,
2013-03-18 04:02:00,41.0,40.0,29.70,West,264,0.0,1.0,98,0.00,,,0.21,,2013-03-18 09:02:00,
2013-03-18 04:12:00,41.0,40.0,29.70,West,264,0.0,1.0,98,0.00,,,0.21,,2013-03-18 09:12:00,
2013-03-18 04:22:00,41.0,40.0,29.71,West,274,1.0,2.0,98,0.00,,,0.21,,2013-03-18 09:22:00,
2013-03-18 04:33:00,41.0,40.0,29.72,SW,218,0.0,2.0,98,0.00,,,0.21,,2013-03-18 09:33:00,
2013-03-18 04:43:00,41.0,40.0,29.72,SW,218,0.0,2.0,98,0.00,,,0.21,,2013-03-18 09:43:00,
2013-03-18 04:53:00,41.0,40.0,29.72,WNW,288,1.0,3.0,98,0.00,,,0.21,,2013-03-18 09:53:00,
2013-03-18 05:03:00,41.0,40.0,29.74,SW,235,1.0,5.0,98,0.00,,,0.21,,2013-03-18 10:03:00,
2013-03-18 05:12:00,41.0,40.0,29.74,SW,235,1.0,5.0,98,0.00,,,0.21,,2013-03-18 10:12:00,
2013-03-18 05:23:00,41.0,40.0,29.73,SSW,211,1.0,3.0,98,0.00,,,0.21,,2013-03-18 10:23:00,
2013-03-18 05:33:00,41.0,40.0,29.74,SSW,213,1.0,4.0,98,0.00,,,0.21,,2013-03-18 10:33:00,
2013-03-18 05:42:00,41.0,40.0,29.74,SSW,213,1.0,4.0,98,0.00,,,0.21,,2013-03-18 10:42:00,
2013-03-18 05:52:00,41.0,40.0,29.74,SSE,154,3.0,5.0,98,0.00,,,0.21,,2013-03-18 10:52:00,
2013-03-18 06:03:00,41.0,40.0,29.73,West,277,1.0,2.0,97,0.00,,,0.21,,2013-03-18 11:03:00,
2013-03-18 06:13:00,41.0,40.0,29.73,West,277,1.0,2.0,97,0.00,,,0.21,,2013-03-18 11:13:00,
2013-03-18 06:22:00,41.0,40.0,29.71,WSW,245,0.0,1.0,98,0.00,,,0.21,,2013-03-18 11:22:00,
2013-03-18 06:32:00,41.0,40.0,29.71,South,179,1.0,3.0,98,0.00,,,0.21,,2013-03-18 11:32:00,
2013-03-18 06:42:00,41.0,40.0,29.71,South,179,1.0,3.0,98,0.00,,,0.21,,2013-03-18 11:42:00,
2013-03-18 06:52:00,41.0,40.0,29.72,SW,214,2.0,6.0,98,0.00,,,0.21,,2013-03-18 11:52:00,
2013-03-18 07:02:00,41.0,40.0,29.73,West,267,1.0,3.0,98,0.00,,,0.21,,2013-03-18 12:02:00,
2013-03-18 07:12:00,41.0,40.0,29.73,West,267,1.0,3.0,98,0.00,,,0.21,,2013-03-18 12:12:00,
2013-03-18 07:22:00,41.0,40.0,29.74,WNW,283,1.0,3.0,98,0.00,,,0.21,,2013-03-18 12:22:00,
2013-03-18 07:32:00,41.0,40.0,29.77,NW,305,3.0,6.0,98,0.00,,,0.21,,2013-03-18 12:32:00,
2013-03-18 07:42:00,41.0,40.0,29.77,NW,305,3.0,6.0,98,0.00,,,0.21,,2013-03-18 12:42:00,
2013-03-18 07:52:00,42.0,41.0,29.76,WNW,293,3.0,5.0,98,0.00,,,0.21,,2013-03-18 12:52:00,
2013-03-18 08:02:00,43.0,42.0,29.77,WNW,291,2.0,9.0,98,0.00,,,0.21,,2013-03-18 13:02:00,
2013-03-18 08:12:00,43.0,42.0,29.77,WNW,291,2.0,9.0,98,0.00,,,0.21,,2013-03-18 13:12:00,
2013-03-18 08:22:00,43.0,42.0,29.76,NW,316,4.0,9.0,98,0.00,,,0.21,,2013-03-18 13:22:00,
2013-03-18 08:33:00,43.0,42.0,29.77,NW,304,5.0,8.0,97,0.00,,,0.21,,2013-03-18 13:33:00,
2013-03-18 08:42:00,43.0,42.0,29.77,NW,304,5.0,8.0,97,0.00,,,0.21,,2013-03-18 13:42:00,
2013-03-18 08:52:00,44.0,43.0,29.78,NW,305,2.0,9.0,97,0.00,,,0.21,,2013-03-18 13:52:00,
2013-03-18 09:02:00,44.0,43.0,29.78,WNW,300,3.0,8.0,96,0.00,,,0.21,,2013-03-18 14:02:00,
2013-03-18 09:12:00,44.0,43.0,29.78,WNW,300,3.0,8.0,96,0.00,,,0.21,,2013-03-18 14:12:00,
2013-03-18 09:22:00,44.0,43.0,29.80,WNW,302,7.0,17.0,95,0.00,,,0.21,,2013-03-18 14:22:00,
2013-03-18 09:32:00,44.0,43.0,29.82,West,274,5.0,10.0,95,0.00,,,0.21,,2013-03-18 14:32:00,
2013-03-18 09:42:00,44.0,43.0,29.82,West,274,5.0,10.0,95,0.00,,,0.21,,2013-03-18 14:42:00,
2013-03-18 09:52:00,45.0,44.0,29.84,WNW,297,5.0,11.0,95,0.00,,,0.21,,2013-03-18 14:52:00,
2013-03-18 10:02:00,45.0,43.0,29.83,WNW,300,5.0,12.0,94,0.00,,,0.21,,2013-03-18 15:02:00,
2013-03-18 10:12:00,45.0,43.0,29.83,WNW,300,5.0,12.0,94,0.00,,,0.21,,2013-03-18 15:12:00,
2013-03-18 10:22:00,45.0,43.0,29.83,NW,305,7.0,13.0,93,0.00,,,0.21,,2013-03-18 15:22:00,
2013-03-18 10:33:00,45.0,43.0,29.83,NW,311,4.0,9.0,93,0.00,,,0.13,,2013-03-18 15:33:00,
2013-03-18 10:43:00,45.0,43.0,29.83,NW,311,4.0,9.0,93,0.00,,,0.13,,2013-03-18 15:43:00,
2013-03-18 10:52:00,46.0,44.0,29.81,NW,321,4.0,9.0,92,0.00,,,0.13,,2013-03-18 15:52:00,
2013-03-18 11:03:00,46.0,44.0,29.80,NNW,329,0.0,4.0,92,0.00,,,0.13,,2013-03-18 16:03:00,
2013-03-18 11:12:00,46.0,44.0,29.80,NNW,329,0.0,4.0,92,0.00,,,0.13,,2013-03-18 16:12:00,
2013-03-18 11:22:00,48.0,45.0,29.80,WSW,256,1.0,4.0,90,0.00,,,0.13,,2013-03-18 16:22:00,
2013-03-18 11:32:00,47.0,44.0,29.82,NW,312,6.0,11.0,89,0.00,,,0.13,,2013-03-18 16:32:00,
2013-03-18 11:42:00,47.0,44.0,29.82,NW,312,6.0,11.0,89,0.00,,,0.13,,2013-03-18 16:42:00,
2013-03-18 11:52:00,47.0,44.0,29.83,WNW,284,4.0,10.0,90,0.00,,,0.13,,2013-03-18 16:52:00,
2013-03-18 12:02:00,47.0,44.0,29.83,NW,316,5.0,11.0,90,0.00,,,0.13,,2013-03-18 17:02:00,
2013-03-18 12:12:00,47.0,44.0,29.83,NW,316,5.0,11.0,90,0.00,,,0.13,,2013-03-18 17:12:00,
2013-03-18 12:22:00,47.0,44.0,29.83,NNW,327,9.0,16.0,88,0.00,,,0.13,,2013-03-18 17:22:00,
2013-03-18 12:32:00,47.0,44.0,29.83,NNW,327,9.0,16.0,88,0.00,,,0.13,,2013-03-18 17:32:00,
2013-03-18 12:42:00,47.0,44.0,29.83,NNW,327,9.0,16.0,88,0.00,,,0.13,,2013-03-18 17:42:00,
2013-03-18 12:52:00,47.0,43.0,29.85,NW,305,6.0,19.0,87,0.00,,,0.13,,2013-03-18 17:52:00,
2013-03-18 13:02:00,46.0,42.0,29.85,NW,309,7.0,15.0,86,0.00,,,0.13,,2013-03-18 18:02:00,
2013-03-18 13:12:00,46.0,42.0,29.85,NW,309,7.0,15.0,86,0.00,,,0.13,,2013-03-18 18:12:00,
2013-03-18 13:22:00,46.0,41.0,29.87,NW,304,8.0,16.0,84,0.00,,,0.13,,2013-03-18 18:22:00,
2013-03-18 13:32:00,46.0,41.0,29.87,NW,304,8.0,16.0,84,0.00,,,0.13,,2013-03-18 18:32:00,
2013-03-18 13:42:00,46.0,41.0,29.87,NW,304,8.0,16.0,84,0.00,,,0.13,,2013-03-18 18:42:00,
2013-03-18 13:52:00,46.0,41.0,29.87,NW,304,8.0,16.0,84,0.00,,,0.13,,2013-03-18 18:52:00,
2013-03-18 14:02:00,47.0,41.0,29.88,NW,312,7.0,17.0,79,0.00,,,0.11,,2013-03-18 19:02:00,
2013-03-18 14:12:00,47.0,41.0,29.88,NW,312,7.0,17.0,79,0.00,,,0.11,,2013-03-18 19:12:00,
2013-03-18 14:22:00,47.0,41.0,29.89,WNW,300,6.0,17.0,79,0.00,,,0.11,,2013-03-18 19:22:00,
2013-03-18 14:33:00,47.0,41.0,29.88,NW,312,9.0,17.0,78,0.00,,,0.11,,2013-03-18 19:33:00,
2013-03-18 14:42:00,47.0,41.0,29.88,NW,312,9.0,17.0,78,0.00,,,0.11,,2013-03-18 19:42:00,
2013-03-18 14:52:00,47.0,41.0,29.88,NW,312,9.0,17.0,78,0.00,,,0.11,,2013-03-18 19:52:00,
2013-03-18 15:02:00,48.0,41.0,29.88,WNW,284,8.0,15.0,76,0.00,,,0.11,,2013-03-18 20:02:00,
2013-03-18 15:12:00,48.0,41.0,29.88,WNW,284,8.0,15.0,76,0.00,,,0.11,,2013-03-18 20:12:00,
2013-03-18 15:23:00,49.0,41.0,29.89,NW,309,7.0,13.0,74,0.00,,,0.11,,2013-03-18 20:23:00,
2013-03-18 15:33:00,49.0,41.0,29.89,WNW,299,9.0,16.0,74,0.00,,,0.11,,2013-03-18 20:33:00,
2013-03-18 15:42:00,49.0,41.0,29.89,WNW,299,9.0,16.0,74,0.00,,,0.11,,2013-03-18 20:42:00,
2013-03-18 15:52:00,49.0,41.0,29.89,WNW,302,5.0,14.0,74,0.00,,,0.11,,2013-03-18 20:52:00,
2013-03-18 16:02:00,50.0,41.0,29.89,North,350,8.0,14.0,70,0.00,,,0.11,,2013-03-18 21:02:00,
2013-03-18 16:12:00,50.0,41.0,29.89,North,350,8.0,14.0,70,0.00,,,0.11,,2013-03-18 21:12:00,
2013-03-18 16:22:00,50.0,41.0,29.89,NW,314,5.0,14.0,71,0.00,,,0.11,,2013-03-18 21:22:00,
2013-03-18 16:32:00,51.0,40.0,29.89,NW,312,7.0,13.0,66,0.00,,,0.11,,2013-03-18 21:32:00,
2013-03-18 16:42:00,51.0,40.0,29.89,NW,312,7.0,13.0,66,0.00,,,0.11,,2013-03-18 21:42:00,
2013-03-18 16:52:00,52.0,39.0,29.89,NW,307,6.0,12.0,61,0.00,,,0.11,,2013-03-18 21:52:00,
2013-03-18 17:03:00,52.0,38.0,29.90,WNW,287,7.0,16.0,59,0.00,,,0.11,,2013-03-18 22:03:00,
2013-03-18 17:13:00,52.0,38.0,29.90,WNW,287,7.0,16.0,59,0.00,,,0.11,,2013-03-18 22:13:00,
2013-03-18 17:23:00,52.0,37.0,29.90,NW,316,7.0,16.0,56,0.00,,,0.11,,2013-03-18 22:23:00,
2013-03-18 17:33:00,53.0,37.0,29.91,WNW,297,6.0,11.0,55,0.00,,,0.10,,2013-03-18 22:33:00,
2013-03-18 17:42:00,53.0,37.0,29.91,WNW,297,6.0,11.0,55,0.00,,,0.10,,2013-03-18 22:42:00,
2013-03-18 17:52:00,53.0,37.0,29.91,NW,325,6.0,14.0,54,0.00,,,0.10,,2013-03-18 22:52:00,
2013-03-18 18:03:00,53.0,36.0,29.91,West,278,7.0,14.0,52,0.00,,,0.10,,2013-03-18 23:03:00,
2013-03-18 18:12:00,53.0,36.0,29.91,West,278,7.0,14.0,52,0.00,,,0.10,,2013-03-18 23:12:00,
2013-03-18 18:22:00,53.0,36.0,29.91,NW,307,6.0,14.0,52,0.00,,,0.10,,2013-03-18 23:22:00,
2013-03-18 18:32:00,53.0,36.0,29.91,WNW,295,4.0,12.0,52,0.00,,,0.07,,2013-03-18 23:32:00,
2013-03-18 18:42:00,53.0,36.0,29.91,WNW,295,4.0,12.0,52,0.00,,,0.07,,2013-03-18 23:42:00,
2013-03-18 18:52:00,53.0,35.0,29.92,NW,308,6.0,14.0,50,0.00,,,0.07,,2013-03-18 23:52:00,
2013-03-18 19:02:00,52.0,34.0,29.92,NW,316,6.0,14.0,51,0.00,,,0.07,,2013-03-19 00:02:00,
2013-03-18 19:12:00,52.0,34.0,29.92,NW,316,6.0,14.0,51,0.00,,,0.07,,2013-03-19 00:12:00,
2013-03-18 19:22:00,52.0,34.0,29.92,WNW,295,4.0,7.0,51,0.00,,,0.07,,2013-03-19 00:22:00,
2013-03-18 19:32:00,51.0,34.0,29.93,NW,322,2.0,10.0,52,0.00,,,0.07,,2013-03-19 00:32:00,
2013-03-18 19:42:00,51.0,34.0,29.93,NW,322,2.0,10.0,52,0.00,,,0.07,,2013-03-19 00:42:00,
2013-03-18 19:52:00,50.0,34.0,29.94,NW,307,2.0,6.0,55,0.00,,,0.07,,2013-03-19 00:52:00,
2013-03-18 20:02:00,50.0,35.0,29.95,NW,312,1.0,5.0,56,0.00,,,0.07,,2013-03-19 01:02:00,
2013-03-18 20:12:00,50.0,35.0,29.95,NW,312,1.0,5.0,56,0.00,,,0.07,,2013-03-19 01:12:00,
2013-03-18 20:22:00,49.0,35.0,29.95,West,263,0.0,2.0,58,0.00,,,0.07,,2013-03-19 01:22:00,
2013-03-18 20:32:00,48.0,34.0,29.96,WSW,256,1.0,2.0,59,0.00,,,0.07,,2013-03-19 01:32:00,
2013-03-18 20:42:00,48.0,34.0,29.96,WSW,256,1.0,2.0,59,0.00,,,0.07,,2013-03-19 01:42:00,
2013-03-18 20:52:00,47.0,35.0,29.96,WSW,256,0.0,1.0,62,0.00,,,0.07,,2013-03-19 01:52:00,
2013-03-18 21:02:00,45.0,35.0,29.96,WSW,256,0.0,1.0,68,0.00,,,0.07,,2013-03-19 02:02:00,
2013-03-18 21:12:00,45.0,35.0,29.96,WSW,256,0.0,1.0,68,0.00,,,0.07,,2013-03-19 02:12:00,
2013-03-18 21:22:00,43.0,34.0,29.97,WSW,256,0.0,0.0,71,0.00,,,0.07,,2013-03-19 02:22:00,
2013-03-18 21:32:00,42.0,35.0,29.98,WSW,256,0.0,0.0,75,0.00,,,0.03,,2013-03-19 02:32:00,
2013-03-18 21:42:00,42.0,35.0,29.98,WSW,256,0.0,0.0,75,0.00,,,0.03,,2013-03-19 02:42:00,
2013-03-18 21:52:00,41.0,35.0,29.98,WSW,256,0.0,0.0,78,0.00,,,0.03,,2013-03-19 02:52:00,
2013-03-18 22:02:00,39.0,33.0,29.99,WSW,256,0.0,0.0,80,0.00,,,0.03,,2013-03-19 03:02:00,
2013-03-18 22:12:00,39.0,33.0,29.99,WSW,256,0.0,0.0,80,0.00,,,0.03,,2013-03-19 03:12:00,
2013-03-18 22:22:00,39.0,35.0,29.99,WSW,255,0.0,1.0,84,0.00,,,0.03,,2013-03-19 03:22:00,
2013-03-18 22:33:00,38.0,34.0,30.01,WSW,255,0.0,0.0,86,0.00,,,0.00,,2013-03-19 03:33:00,
2013-03-18 22:43:00,38.0,34.0,30.01,WSW,255,0.0,0.0,86,0.00,,,0.00,,2013-03-19 03:43:00,
2013-03-18 22:53:00,37.0,33.0,30.01,WSW,255,0.0,0.0,86,0.00,,,0.00,,2013-03-19 03:53:00,
2013-03-18 23:03:00,36.0,33.0,30.02,WSW,256,0.0,0.0,88,0.00,,,0.00,,2013-03-19 04:03:00,
2013-03-18 23:13:00,36.0,33.0,30.02,WSW,256,0.0,0.0,88,0.00,,,0.00,,2013-03-19 04:13:00,
2013-03-18 23:23:00,36.0,33.0,30.03,WSW,255,0.0,0.0,90,0.00,,,0.00,,2013-03-19 04:23:00,
2013-03-18 23:33:00,36.0,33.0,30.04,WSW,256,0.0,0.0,89,0.00,,,0.00,,2013-03-19 04:33:00,
2013-03-18 23:43:00,36.0,33.0,30.04,WSW,256,0.0,0.0,89,0.00,,,0.00,,2013-03-19 04:43:00,
2013-03-18 23:52:00,36.0,34.0,30.04,WSW,255,0.0,1.0,91,0.00,,,0.00,,2013-03-19 04:52:00,